Weather History for Springfield, MO

Change the Weather History Date:

Sunday, August 4, 2013

  Actual Average Record
Temperature  
Mean Temperature 73 °F 79 °F  
Max Temperature 76 °F 90 °F 106 °F (2012)
Min Temperature 69 °F 68 °F 46 °F (1974)
Degree Days  
Heating Degree Days 0 0  
Month to date heating degree days 0 0  
Since 1 June heating degree days 14 9  
Since 1 July heating degree days 0 0  
Cooling Degree Days 8 14  
Month to date cooling degree days 45 56  
Year to date cooling degree days 829 844  
Since 1 June cooling degree days 702 729  
Growing Degree Days 22 (Base 50)    
Moisture  
Dew Point 70 °F    
Average Humidity 90    
Maximum Humidity 93    
Minimum Humidity 87    
Precipitation  
Precipitation 2.24 in 0.10 in 2.46 in (1928)
Month to date precipitation 3.51 0.39  
Year to date precipitation 35.82 26.95  
Snow  
Snow 0.00 in - - ()
Month to date snowfall 0.0  
Since 1 June snowfall 0.0  
Since 1 July snowfall 0.0  
Snow Depth 0.00 in    
Sea Level Pressure  
Sea Level Pressure 30.11 in    
Wind  
Wind Speed 7 mph (SE)    
Max Wind Speed 22 mph    
Max Gust Speed 34 mph    
Visibility 8 miles    
Events Fog , Rain , Thunderstorm    
T = Trace of Precipitation, MM = Missing Value Source: NWS Daily Summary

Daily Weather History Graph

Daily Weather History Graph

Search for Another Location

Airport:

Trip Planner

Search our weather history database for the weather conditions in past years. The results will help you decide how hot, cold, wet, or windy it might be!

Date:

Astronomy

Aug. 04, 2013 Rise Set
Actual Time 6:20 AM CDT 8:17 PM CDT
Civil Twilight 5:52 AM CDT 8:46 PM CDT
Nautical Twilight 5:17 AM CDT 9:20 PM CDT
Astronomical Twilight 4:40 AM CDT 9:57 PM CDT
Moon 4:22 AM CDT (8/4) 6:41 PM CDT (8/4)
Length of Visible Light 14h 53m
Length of Day
13h 56m
Waning Crescent, 4% of the Moon is Illuminated
Aug 4
Waning Crescent
Aug 6
New
Aug 14
First Quarter
Aug 20
Full
Aug 28
Last Quarter

Hourly Weather History & Observations

Time (CDT) Temp. Dew Point Humidity Pressure Visibility Wind Dir Wind Speed Gust Speed Precip Events Conditions
12:52 AM 75.0 °F 72.0 °F 90% 30.08 in 10.0 mi SE 5.8 mph - N/A   Scattered Clouds
1:52 AM 75.0 °F 72.0 °F 90% 30.06 in 10.0 mi East 6.9 mph - N/A   Mostly Cloudy
2:52 AM 73.9 °F 71.1 °F 91% 30.05 in 10.0 mi ESE 5.8 mph - N/A   Scattered Clouds
3:52 AM 75.0 °F 71.1 °F 87% 30.07 in 10.0 mi NE 3.5 mph - N/A   Mostly Cloudy
4:52 AM 73.9 °F 71.1 °F 91% 30.08 in 10.0 mi East 6.9 mph - N/A   Partly Cloudy
5:52 AM 73.9 °F 71.1 °F 91% 30.06 in 10.0 mi East 5.8 mph - N/A   Clear
6:52 AM 73.9 °F 71.1 °F 91% 30.07 in 10.0 mi ESE 6.9 mph - N/A   Overcast
7:52 AM 75.0 °F 72.0 °F 90% 30.09 in 10.0 mi SE 6.9 mph - 0.00 in   Overcast
8:52 AM 73.9 °F 72.0 °F 93% 30.09 in 10.0 mi SE 6.9 mph - 0.02 in   Overcast
9:52 AM 73.9 °F 70.0 °F 87% 30.12 in 10.0 mi ESE 6.9 mph - 0.00 in Rain , Thunderstorm Light Rain
10:09 AM 73.9 °F 71.1 °F 91% 30.16 in 10.0 mi SSE 3.5 mph - 0.01 in Rain , Thunderstorm Light Thunderstorms and Rain
10:23 AM 73.0 °F 70.0 °F 90% 30.19 in 2.5 mi West 21.9 mph 33.4 mph 0.04 in Rain , Thunderstorm Heavy Thunderstorms and Rain
10:28 AM 72.0 °F 66.9 °F 84% 30.20 in 1.2 mi WSW 9.2 mph 33.4 mph 0.19 in Rain , Thunderstorm Heavy Thunderstorms and Rain
10:37 AM 70.0 °F 68.0 °F 93% 30.20 in 0.8 mi WSW 3.5 mph - 0.56 in Rain , Thunderstorm Heavy Thunderstorms and Rain
10:47 AM 69.8 °F 69.8 °F 100% 30.19 in 0.5 mi Variable 4.6 mph - 1.02 in Fog , Rain , Thunderstorm Heavy Thunderstorms and Rain
10:52 AM 70.0 °F 69.1 °F 97% 30.16 in 0.5 mi Variable 5.8 mph - 1.29 in Fog , Rain , Thunderstorm Heavy Thunderstorms and Rain
10:57 AM 69.1 °F 69.1 °F 100% 30.19 in 1.0 mi Variable 3.5 mph - 0.08 in Rain , Thunderstorm Heavy Thunderstorms and Rain
11:11 AM 70.0 °F 69.1 °F 97% 30.19 in 2.0 mi NNW 8.1 mph - 0.16 in Rain , Thunderstorm Heavy Thunderstorms and Rain
11:23 AM 70.0 °F 69.1 °F 97% 30.20 in 1.8 mi Calm Calm - 0.22 in Rain , Thunderstorm Heavy Thunderstorms and Rain
11:29 AM 70.0 °F 69.1 °F 97% 30.20 in 0.8 mi West 4.6 mph - 0.31 in Rain , Thunderstorm Heavy Rain
11:36 AM 70.0 °F 68.0 °F 93% 30.19 in 0.5 mi NNE 6.9 mph - 0.47 in Fog , Rain , Thunderstorm Heavy Rain
11:48 AM 69.8 °F 69.8 °F 100% 30.18 in 1.8 mi East 5.8 mph - 0.67 in Rain Heavy Rain
11:52 AM 70.0 °F 69.1 °F 97% 30.15 in 3.0 mi East 5.8 mph - 0.69 in Rain Heavy Rain
11:59 AM 70.0 °F 69.1 °F 97% 30.18 in 5.0 mi East 6.9 mph - 0.02 in Rain Rain
12:52 PM 72.0 °F 70.0 °F 93% 30.14 in 9.0 mi SSE 6.9 mph - 0.11 in Rain Light Rain
1:52 PM 72.0 °F 70.0 °F 93% 30.12 in 8.0 mi SE 6.9 mph - 0.07 in Rain Light Rain
2:52 PM 73.0 °F 71.1 °F 93% 30.10 in 10.0 mi ESE 6.9 mph - 0.03 in Rain Light Rain
3:52 PM 73.0 °F 71.1 °F 93% 30.08 in 10.0 mi ESE 6.9 mph - 0.02 in Rain Light Rain
4:52 PM 73.9 °F 69.1 °F 85% 30.06 in 10.0 mi South 4.6 mph - 0.00 in Rain Light Rain
5:52 PM 73.0 °F 69.1 °F 87% 30.03 in 10.0 mi ESE 8.1 mph - 0.00 in Rain Light Rain
6:52 PM 73.0 °F 69.1 °F 87% 30.04 in 10.0 mi SE 4.6 mph - 0.00 in   Mostly Cloudy
7:52 PM 72.0 °F 70.0 °F 93% 30.03 in 9.0 mi ESE 12.7 mph - 0.01 in Rain Light Rain
8:32 PM 72.0 °F 70.0 °F 93% 30.07 in 10.0 mi SSE 9.2 mph - 0.00 in   Overcast
8:52 PM 72.0 °F 69.1 °F 91% 30.04 in 10.0 mi SE 9.2 mph - 0.00 in   Overcast
9:52 PM 71.1 °F 70.0 °F 96% 30.05 in 10.0 mi SSE 5.8 mph - N/A   Overcast
9:59 PM 71.1 °F 70.0 °F 96% 30.08 in 10.0 mi SSE 5.8 mph - N/A   Overcast
10:11 PM 71.1 °F 70.0 °F 96% 30.08 in 10.0 mi SSE 5.8 mph - N/A   Overcast
10:27 PM 71.1 °F 69.1 °F 93% 30.08 in 10.0 mi SE 6.9 mph - N/A   Overcast
10:48 PM 71.6 °F 69.8 °F 94% 30.08 in 10.0 mi SSE 9.2 mph - N/A   Overcast
10:52 PM 71.1 °F 69.1 °F 93% 30.05 in 10.0 mi SSE 9.2 mph - N/A   Overcast
11:17 PM 71.1 °F 69.1 °F 93% 30.07 in 10.0 mi SE 10.4 mph - N/A   Overcast
11:32 PM 71.1 °F 69.1 °F 93% 30.07 in 10.0 mi SE 12.7 mph - N/A   Overcast
11:52 PM 71.1 °F 69.1 °F 93% 30.04 in 10.0 mi SSE 11.5 mph - N/A   Overcast